Hourly Weather Roundup
Issued by NWS Central Illinois

Home | Current Version | Previous Version | Text Only | Print | Product List | Glossary On
Versions: 1 2 3 4 5 6 7 8 9 10 11 12 13 14 15 16 17 18 19 20 21 22 23 24 25 26 27 28 29 30 31 32 33 34 35 36 37 38 39 40 41 42 43 44 45 46 47 48 49 50
000
NZUS43 KILX 290610
HWRILX

AREA WEATHER ROUNDUP
NATIONAL WEATHER SERVICE, LINCOLN IL
1200 AM CST MON DEC 29 2014


CITY           SKY/WX    TMP DP  RH WIND       PRES   REMARKS
BLOOMINGTON    CLEAR     25  21  84 CALM      30.25S
6HR MIN TEMP:  23; 6HR MAX TEMP:  28;

CHAMPAIGN      MOCLDY    23  19  85 CALM      30.24S
6HR MIN TEMP:  22; 6HR MAX TEMP:  29;

DECATUR        PTCLDY    24  20  84 CALM      30.25R
6HR MIN TEMP:  22; 6HR MAX TEMP:  28;

FLORA          CLEAR     26  25  97 CALM      30.25R
6HR MIN TEMP:  25; 6HR MAX TEMP:  31;

GALESBURG      PTCLDY    20  19  96 CALM      30.24S
JACKSONVILLE   CLEAR     26  23  91 CALM      30.24S
6HR MIN TEMP:  24; 6HR MAX TEMP:  32;

LACON          MOCLDY    21  18  86 CALM      30.26R
6HR MIN TEMP:  20; 6HR MAX TEMP:  28;

LAWRENCEVILLE  CLEAR     26  23  88 NE5       30.25S WCI  20
6HR MIN TEMP:  25; 6HR MAX TEMP:  30;

LITCHFIELD     CLEAR     24  22  93 CALM      30.23F
$$


CITY           SKY/WX    TMP DP  RH WIND       PRES   REMARKS
LINCOLN        CLEAR     24  22  93 CALM      30.27S
6HR MIN TEMP:  24; 6HR MAX TEMP:  29;

MACOMB         CLEAR     23  21  93 CALM      30.26S
MATTOON        PTCLDY    22  20  92 N3        30.23S
6HR MIN TEMP:  22; 6HR MAX TEMP:  28;

MT CARMEL AP   CLEAR     30  25  80 NE5       30.25R WCI  25
OLNEY-NOBLE AP CLEAR     27  23  86 CALM      30.25R
PARIS          PTCLDY    22  21  97 CALM      30.25S
6HR MIN TEMP:  22; 6HR MAX TEMP:  27;

PEORIA         CLEAR     23  18  81 CALM      30.26R
6HR MIN TEMP:  23; 6HR MAX TEMP:  30;

PONTIAC        PTCLDY    23  19  86 CALM      30.26S
RANTOUL        PTCLDY    24  20  87 CALM      30.25S
6HR MIN TEMP:  24; 6HR MAX TEMP:  29;

ROBINSON       CLEAR     24  23  97 N3        30.25S
6HR MIN TEMP:  23; 6HR MAX TEMP:  29;

SPRINGFIELD    CLEAR     23  20  88 CALM      30.25F
6HR MIN TEMP:  22; 6HR MAX TEMP:  30;

TAYLORVILLE    CLEAR     25  23  93 CALM      30.25S FOG
$$

...REGIONAL REPORTS...


CITY           SKY/WX    TMP DP  RH WIND       PRES   REMARKS
CHICAGO O`HARE PTCLDY    25  19  78 NW5       30.24S WCI  19
KANKAKEE       CLEAR     25  21  85 NW3       30.26S
MOLINE         PTCLDY    22  19  89 CALM      30.26R
MOUNT VERNON   CLEAR     25  18  74 CALM      30.24R
PITTSFIELD     CLEAR     26  24  90 CALM      30.25S
QUINCY         CLEAR     26  22  84 SE5       30.23R WCI  20
ROCKFORD       MOCLDY    23  18  81 CALM      30.27S
$$


CITY           SKY/WX    TMP DP  RH WIND       PRES   REMARKS
BURLINGTON     FAIR      27  22  81 N5        30.24S WCI  22
CEDAR RAPIDS   CLOUDY    26  20  77 NE6       30.25R WCI  19
DES MOINES     MOCLDY    29  22  75 NE7       30.23S WCI  22
KIRKSVILLE     MOCLDY    23  22  96 CALM      30.22R
OTTUMWA        CLOUDY    28  21  75 E7        30.22S WCI  21
ST LOUIS       CLEAR     28  22  78 CALM      30.24S
$$


CITY           SKY/WX    TMP DP  RH WIND       PRES   REMARKS
TERRE HAUTE    CLEAR     23  20  88 N3        30.24F
EVANSVILLE     CLOUDY    33  27  78 NE3       30.24R
INDIANAPOLIS   CLEAR     22  20  92 N5        30.22S WCI  16
LAFAYETTE      PTCLDY    20  19  96 CALM      30.25R FOG
MADISON        CLOUDY    24  17  74 N15       30.27R WCI  11
MILWAUKEE      CLOUDY    27  19  72 NW6       30.25S WCI  20
$$





USA.gov is the U.S. government's official web portal to all federal, state and local government web resources and services.